| time (UTC) | temp F | wind direction | speed MPH | gust MPH | rain 1hr in | rain 24hr in | rain mn in | humidity % | barometer mb |
| 20260502211552 | 51 | 312 | 3.0 | 0.0 | 0.00 | 0.00 | 0.00 | 53 | 1015.5 |
| 20260502210044 | 51 | 308 | 0.0 | 0.0 | 0.00 | 0.00 | 0.00 | 52 | 1015.5 |
| 20260502204544 | 51 | 39 | 0.0 | 0.0 | 0.00 | 0.00 | 0.01 | 50 | 1015.6 |
| 20260502203108 | 51 | 40 | 1.0 | 0.0 | 0.00 | 0.00 | 0.01 | 50 | 1015.7 |
| 20260502201544 | 51 | 30 | 1.0 | 0.0 | 0.00 | 0.00 | 0.01 | 49 | 1015.7 |
| 20260502200051 | 51 | 26 | 0.0 | 0.0 | 0.00 | 0.00 | 0.01 | 48 | 1015.8 |
| 20260502194543 | 51 | 30 | 1.0 | 0.0 | 0.00 | 0.00 | 0.01 | 48 | 1015.9 |
| 20260502193041 | 52 | 5 | 1.0 | 0.0 | 0.00 | 0.00 | 0.01 | 47 | 1015.8 |
| 20260502191546 | 52 | 17 | 1.0 | 0.0 | 0.00 | 0.00 | 0.01 | 47 | 1015.8 |
| 20260502190041 | 52 | 5 | 2.0 | 0.0 | 0.00 | 0.00 | 0.01 | 47 | 1015.7 |
| 20260502184539 | 52 | 42 | 1.0 | 0.0 | 0.00 | 0.00 | 0.01 | 47 | 1015.7 |
| 20260502183039 | 52 | 20 | 1.0 | 0.0 | 0.00 | 0.00 | 0.01 | 46 | 1015.6 |
| 20260502181538 | 52 | 332 | 2.0 | 0.0 | 0.00 | 0.00 | 0.01 | 46 | 1015.4 |
| 20260502163042 | 54 | 5 | 3.0 | 0.0 | 0.00 | 0.00 | 0.01 | 42 | 1015.3 |
| 20260502161552 | 55 | 18 | 3.0 | 0.0 | 0.00 | 0.00 | 0.01 | 40 | 1015.2 |
| 20260502151530 | 54 | 34 | 3.0 | 0.0 | 0.00 | 0.00 | 0.01 | 43 | 1015.6 |
| 20260502123031 | 55 | 44 | 4.0 | 0.0 | 0.00 | 0.00 | 0.01 | 42 | 1015.8 |
| 20260502121525 | 55 | 62 | 3.0 | 0.0 | 0.00 | 0.00 | 0.01 | 42 | 1015.8 |
| 20260502114520 | 55 | 63 | 4.0 | 0.0 | 0.00 | 0.00 | 0.01 | 44 | 1015.9 |
| 20260502113016 | 56 | 35 | 4.0 | 0.0 | 0.00 | 0.00 | 0.01 | 47 | 1015.8 |
| 20260502111516 | 55 | 22 | 3.0 | 0.0 | 0.00 | 0.00 | 0.01 | 48 | 1016.1 |
| 20260502110016 | 55 | 40 | 3.0 | 0.0 | 0.00 | 0.00 | 0.01 | 50 | 1016.1 |
| 20260502104517 | 55 | 329 | 3.0 | 0.0 | 0.00 | 0.00 | 0.01 | 49 | 1016.3 |
| 20260502103012 | 55 | 49 | 5.0 | 0.0 | 0.00 | 0.00 | 0.01 | 50 | 1016.4 |
| 20260502101512 | 54 | 34 | 3.0 | 0.0 | 0.00 | 0.00 | 0.01 | 54 | 1016.3 |
| 20260502091507 | 55 | 335 | 4.0 | 0.0 | 0.00 | 0.00 | 0.01 | 52 | 1016.4 |
| 20260502070112 | 54 | 360 | 5.0 | 0.0 | 0.00 | 0.00 | 0.01 | 53 | 1015.8 |
| 20260502064557 | 55 | 63 | 4.0 | 0.0 | 0.00 | 0.00 | 0.01 | 51 | 1015.8 |
| 20260502063059 | 54 | 63 | 4.0 | 0.0 | 0.00 | 0.00 | 0.01 | 51 | 1015.6 |
| 20260502061553 | 54 | 61 | 4.0 | 0.0 | 0.00 | 0.00 | 0.01 | 54 | 1015.6 |
| 20260502060053 | 53 | 15 | 4.0 | 0.0 | 0.00 | 0.00 | 0.01 | 58 | 1015.7 |
| 20260502054549 | 52 | 31 | 3.0 | 0.0 | 0.00 | 0.00 | 0.01 | 63 | 1015.6 |
| 20260502053048 | 51 | 32 | 3.0 | 0.0 | 0.00 | 0.00 | 0.01 | 64 | 1015.8 |
| 20260502051557 | 51 | 27 | 3.0 | 0.0 | 0.00 | 0.00 | 0.01 | 64 | 1016.0 |
| 20260502050048 | 51 | 72 | 3.0 | 0.0 | 0.00 | 0.00 | 0.01 | 66 | 1016.1 |
| 20260502044545 | 51 | 51 | 2.0 | 0.0 | 0.00 | 0.00 | 0.01 | 67 | 1016.2 |
| 20260502043045 | 51 | 35 | 2.0 | 0.0 | 0.00 | 0.00 | 0.01 | 69 | 1016.2 |
| 20260502041540 | 51 | 329 | 2.0 | 0.0 | 0.00 | 0.00 | 0.00 | 70 | 1016.0 |
| 20260502040039 | 50 | 24 | 2.0 | 0.0 | 0.00 | 0.00 | 0.00 | 72 | 1016.2 |
| 20260502034538 | 50 | 341 | 2.0 | 0.0 | 0.00 | 0.00 | 0.00 | 72 | 1016.2 |
| 20260502033035 | 51 | 360 | 2.0 | 0.0 | 0.00 | 0.00 | 0.00 | 70 | 1016.1 |
| 20260502031534 | 51 | 87 | 2.0 | 0.0 | 0.00 | 0.00 | 0.00 | 69 | 1015.7 |
| 20260502030033 | 51 | 111 | 2.0 | 0.0 | 0.00 | 0.00 | 0.00 | 67 | 1015.7 |
| 20260502024533 | 51 | 329 | 2.0 | 0.0 | 0.00 | 0.00 | 0.00 | 66 | 1015.9 |
| 20260502023031 | 51 | 317 | 2.0 | 0.0 | 0.00 | 0.00 | 0.00 | 66 | 1015.8 |
| 20260502021530 | 51 | 360 | 3.0 | 0.0 | 0.00 | 0.00 | 0.00 | 66 | 1015.8 |
| 20260502020028 | 51 | 331 | 1.0 | 0.0 | 0.00 | 0.00 | 0.00 | 68 | 1015.9 |
| 20260502014529 | 51 | 22 | 2.0 | 0.0 | 0.00 | 0.00 | 0.00 | 69 | 1015.9 |
| 20260502013025 | 51 | 49 | 2.0 | 0.0 | 0.00 | 0.00 | 0.00 | 70 | 1016.0 |
| 20260502011525 | 51 | 84 | 2.0 | 0.0 | 0.00 | 0.00 | 0.00 | 70 | 1016.0 |
| 20260502010027 | 51 | 33 | 2.0 | 0.0 | 0.00 | 0.00 | 0.00 | 70 | 1016.1 |
| 20260502004524 | 51 | 346 | 2.0 | 0.0 | 0.00 | 0.00 | 0.00 | 70 | 1016.0 |
| 20260502003019 | 51 | 335 | 2.0 | 0.0 | 0.00 | 0.00 | 0.00 | 71 | 1016.2 |
| 20260502001518 | 51 | 11 | 2.0 | 0.0 | 0.00 | 0.00 | 0.00 | 70 | 1016.2 |
| 20260502000017 | 52 | 15 | 2.0 | 0.0 | 0.00 | 0.00 | 0.00 | 70 | 1016.5 |
| 20260501234514 | 52 | 347 | 2.0 | 0.0 | 0.00 | 0.00 | 0.00 | 69 | 1016.5 |
| 20260501233012 | 52 | 360 | 2.0 | 0.0 | 0.00 | 0.00 | 0.00 | 69 | 1016.7 |
| 20260501231512 | 52 | 63 | 2.0 | 0.0 | 0.00 | 0.00 | 0.00 | 68 | 1016.8 |
| 20260501230008 | 52 | 339 | 2.0 | 0.0 | 0.00 | 0.00 | 0.00 | 67 | 1016.9 |
| 20260501224506 | 52 | 26 | 2.0 | 0.0 | 0.00 | 0.00 | 0.00 | 66 | 1016.8 |
| 20260501223005 | 52 | 29 | 1.0 | 0.0 | 0.00 | 0.00 | 0.00 | 67 | 1017.2 |
| 20260501221509 | 53 | 14 | 2.0 | 0.0 | 0.00 | 0.00 | 0.00 | 67 | 1017.5 |
| 20260501220004 | 53 | 65 | 2.0 | 0.0 | 0.00 | 0.00 | 0.00 | 67 | 1017.4 |
| 20260501214607 | 53 | 5 | 2.0 | 0.0 | 0.00 | 0.00 | 0.00 | 66 | 1017.6 |
| 20260501213107 | 53 | 13 | 2.0 | 0.0 | 0.00 | 0.00 | 0.00 | 66 | 1017.4 |